IZ0CGP Civita Castellana IT current weather conditions

sailwx.info

Wind from 344 at 4 knots

Air temperature 19.4° C
Dewpoint 10.2° C

Last reported at 2020-Jul-14 05:56 UTC.
Time now 2020-Jul-14 07:10 UTC

Location: N 42°17' E 012°25'.
View on Google Maps.

See reports from other nearby stations

  
Tides and Currents Weather Stations Pressure Air Temp Water Temp Dewpoint Dewpoint Depression Visibility Wind Speed Wind Dir Waves Ship Positions
date/time (UTC)wind fromknots sea level pressurealtimeterstation pressurevisibilityair tempwater tempwave heightnotes
2020-Jul-14 05:56 344 4 19.4
2020-Jul-14 05:46 045 3 19.4
2020-Jul-14 05:36 332 7 18.9
2020-Jul-14 05:25 009 7 18.9
2020-Jul-14 05:15 006 3 18.3
2020-Jul-14 05:05 332 4 18.3
2020-Jul-14 04:55 345 4 17.8
2020-Jul-14 04:45 310 5 17.8
2020-Jul-14 04:35 315 3 17.2
2020-Jul-14 04:25 345 2 17.2
2020-Jul-14 04:15 324 2 gusting 6 16.7
2020-Jul-14 04:05 331 4 gusting 6 16.7
2020-Jul-14 03:55 325 5 gusting 6 16.7
2020-Jul-14 03:45 312 2 gusting 7 16.7
2020-Jul-14 03:35 319 5 gusting 6 17.2
2020-Jul-14 03:25 354 2 gusting 6 17.2
2020-Jul-14 03:15 316 1 gusting 6 17.2
2020-Jul-14 03:05 017 2 gusting 6 17.2
2020-Jul-14 02:54 008 3 gusting 6 17.2
2020-Jul-14 02:44 339 4 gusting 6 17.2
2020-Jul-14 02:34 332 1 gusting 7 17.2
2020-Jul-14 02:24 325 5 gusting 8 17.8
2020-Jul-14 02:14 341 2 gusting 9 17.8
2020-Jul-14 02:04 326 6 gusting 10 17.8
2020-Jul-14 01:54 312 8 gusting 12 17.8
2020-Jul-14 01:44 324 5 gusting 9 17.8
2020-Jul-14 01:34 323 6 gusting 11 17.8
2020-Jul-14 01:24 343 6 gusting 11 17.8
2020-Jul-14 01:14 331 5 gusting 11 17.8
2020-Jul-14 01:04 033 5 gusting 8 17.8
2020-Jul-14 00:54 355 5 gusting 9 17.8
2020-Jul-14 00:44 336 5 gusting 11 18.3
2020-Jul-14 00:34 317 6 gusting 9 18.3
2020-Jul-14 00:24 317 8 gusting 8 18.3
2020-Jul-14 00:14 327 5 gusting 8 18.3
2020-Jul-14 00:04 18.3
2020-Jul-13 23:54 337 6 gusting 13 18.3
2020-Jul-13 23:34 299 5 gusting 11 18.9
2020-Jul-13 23:24 018 6 gusting 12 18.9
2020-Jul-13 23:14 328 6 gusting 8 18.9
2020-Jul-13 23:04 330 6 gusting 11 19.4
2020-Jul-13 22:53 337 5 gusting 11 19.4
2020-Jul-13 22:43 328 6 gusting 9 19.4
2020-Jul-13 22:33 012 6 gusting 8 19.4
2020-Jul-13 22:23 348 2 gusting 8 20.0
2020-Jul-13 22:13 339 5 gusting 8 20.0
2020-Jul-13 21:58 325 5 gusting 11 20.6
2020-Jul-13 21:42 307 4 gusting 12 20.6
2020-Jul-13 21:32 027 7 gusting 11 20.6
2020-Jul-13 21:22 324 6 gusting 11 21.1
2020-Jul-13 21:12 309 5 gusting 11 21.1
2020-Jul-13 21:02 315 9 gusting 11 21.1
2020-Jul-13 20:51 319 6 gusting 8 21.7
2020-Jul-13 20:41 328 8 gusting 11 21.7
2020-Jul-13 20:31 357 4 gusting 6 22.2
2020-Jul-13 20:21 320 3 gusting 5 22.8
2020-Jul-13 20:10 017 1 gusting 8 22.8
2020-Jul-13 20:00 008 6 gusting 11 23.3
2020-Jul-13 19:50 006 4 gusting 11 23.3
2020-Jul-13 19:40 324 5 gusting 11 23.3
2020-Jul-13 19:30 340 6 gusting 13 23.9
2020-Jul-13 19:20 320 9 gusting 13 23.9
2020-Jul-13 19:10 335 6 gusting 13 24.4
2020-Jul-13 19:00 359 6 gusting 11 24.4
2020-Jul-13 18:49 321 5 gusting 11 25.0
2020-Jul-13 18:39 25.0
2020-Jul-13 18:29 306 7 gusting 14 25.6
2020-Jul-13 18:19 339 11 gusting 13 25.6
2020-Jul-13 18:09 354 12 gusting 14 26.1
2020-Jul-13 17:59 328 8 gusting 14 26.7
2020-Jul-13 17:49 322 6 gusting 17 26.7
2020-Jul-13 17:38 357 12 gusting 17 27.2
2020-Jul-13 17:28 338 12 gusting 17 27.2
2020-Jul-13 17:18 024 9 gusting 17 27.8
2020-Jul-13 17:08 023 9 gusting 17 27.8
2020-Jul-13 16:57 341 13 gusting 18 27.8
2020-Jul-13 16:47 045 10 gusting 17 28.3
2020-Jul-13 16:37 019 7 gusting 17 28.3
2020-Jul-13 16:27 317 7 gusting 18 28.3
2020-Jul-13 16:17 345 5 gusting 15 28.9
2020-Jul-13 16:06 025 9 gusting 14 28.9
2020-Jul-13 15:56 338 7 gusting 18 28.9
2020-Jul-13 15:46 28.9
2020-Jul-13 15:36 007 11 gusting 17 29.4
2020-Jul-13 15:26 038 6 gusting 14 29.4
2020-Jul-13 15:16 345 8 gusting 17 30.0
2020-Jul-13 15:05 329 6 gusting 14 30.0
2020-Jul-13 14:55 003 10 gusting 20 30.0
2020-Jul-13 14:45 347 9 gusting 18 29.4
2020-Jul-13 14:35 003 11 gusting 13 30.0
2020-Jul-13 14:25 039 1 gusting 13 30.0
2020-Jul-13 14:15 344 8 gusting 14 30.0
2020-Jul-13 14:05 007 13 gusting 18 30.0
2020-Jul-13 13:54 352 11 gusting 13 30.0
2020-Jul-13 13:44 328 7 gusting 14 30.0
2020-Jul-13 13:34 007 2 gusting 11 29.4
2020-Jul-13 13:24 011 6 gusting 14 30.0
2020-Jul-13 13:14 359 6 gusting 14 30.0
2020-Jul-13 13:04 351 8 gusting 11 30.0
2020-Jul-13 12:54 327 2 gusting 11 30.0
2020-Jul-13 12:44 342 8 gusting 13 29.4
2020-Jul-13 12:33 330 8 gusting 13 30.0
2020-Jul-13 12:23 341 6 gusting 11 29.4
2020-Jul-13 12:13 352 7 gusting 13 30.0
2020-Jul-13 12:03 320 9 gusting 11 29.4
2020-Jul-13 11:53 030 6 gusting 12 29.4
2020-Jul-13 11:43 055 1 gusting 11 28.9
2020-Jul-13 11:32 014 8 gusting 12 28.9
2020-Jul-13 11:22 343 5 gusting 11 29.4
2020-Jul-13 11:12 048 1 gusting 11 28.9
2020-Jul-13 11:02 342 2 gusting 11 28.3
2020-Jul-13 10:52 052 5 gusting 11 28.3
2020-Jul-13 10:41 028 4 gusting 9 27.8
2020-Jul-13 10:31 022 6 gusting 9 27.8
2020-Jul-13 10:21 015 7 gusting 11 27.8
2020-Jul-13 10:11 341 3 gusting 11 27.2
2020-Jul-13 10:01 009 10 gusting 12 27.2
2020-Jul-13 09:51 052 3 gusting 11 26.7
2020-Jul-13 09:40 338 11 gusting 13 26.7
2020-Jul-13 09:30 321 9 gusting 17 26.1
2020-Jul-13 09:20 038 5 gusting 14 26.1
2020-Jul-13 09:10 007 4 gusting 15 25.6
2020-Jul-13 09:00 043 8 gusting 14 25.6
2020-Jul-13 08:50 326 4 gusting 13 25.6
2020-Jul-13 08:40 010 6 gusting 12 25.6
2020-Jul-13 08:30 353 7 gusting 11 25.0
2020-Jul-13 08:19 353 6 gusting 17 24.4
2020-Jul-13 08:09 027 6 gusting 14 24.4
2020-Jul-13 07:59 011 5 gusting 13 23.9
2020-Jul-13 07:49 038 6 gusting 12 23.9
2020-Jul-13 07:39 003 9 gusting 14 23.3
2020-Jul-13 07:29 341 9 gusting 13 23.3
2020-Jul-13 07:19 340 11 gusting 14 22.8
2020-Jul-13 07:09 359 5 gusting 13 22.8
2020-Jul-13 06:59 323 8 gusting 15 22.2
2020-Jul-13 06:49 22.2
2020-Jul-13 06:39 21.7
2020-Jul-13 06:29 319 6 gusting 12 21.7
2020-Jul-13 06:19 356 6 gusting 15 21.7
2020-Jul-13 06:09 339 7 gusting 12 21.1
2020-Jul-13 05:59 014 5 gusting 12 21.1
2020-Jul-13 05:49 013 6 gusting 13 20.6
2020-Jul-13 05:39 005 8 gusting 11 21.1
2020-Jul-13 05:29 332 6 gusting 11 20.6
2020-Jul-13 05:19 353 6 gusting 12 20.6
2020-Jul-13 05:09 356 6 gusting 11 20.6
2020-Jul-13 04:59 006 3 gusting 11 20.6
2020-Jul-13 04:49 339 5 gusting 11 20.0
2020-Jul-13 04:39 310 6 gusting 13 20.0
2020-Jul-13 04:28 323 6 gusting 11 20.0
2020-Jul-13 04:18 359 6 gusting 11 20.0
2020-Jul-13 04:08 328 6 gusting 9 20.0
2020-Jul-13 03:58 315 5 gusting 11 20.0
2020-Jul-13 03:48 316 8 gusting 12 20.0
2020-Jul-13 03:38 321 8 gusting 13 20.0
2020-Jul-13 03:28 330 11 gusting 13 20.6
2020-Jul-13 03:18 002 8 gusting 13 20.6
2020-Jul-13 03:07 358 8 gusting 11 20.6
2020-Jul-13 02:57 317 6 gusting 11 20.6
2020-Jul-13 02:47 350 6 gusting 11 20.6
2020-Jul-13 02:37 313 7 gusting 11 20.6
2020-Jul-13 02:27 319 5 gusting 9 20.6
2020-Jul-13 02:17 352 8 gusting 13 20.6
2020-Jul-13 02:07 318 4 gusting 11 20.6
2020-Jul-13 01:57 331 8 gusting 11 20.6
2020-Jul-13 01:47 348 8 gusting 12 21.1
2020-Jul-13 01:36 338 7 gusting 13 21.1
2020-Jul-13 01:26 001 5 gusting 13 21.1
2020-Jul-13 01:16 007 8 gusting 12 21.1
2020-Jul-13 01:06 339 7 gusting 11 21.1
2020-Jul-13 00:56 038 5 gusting 13 21.1
2020-Jul-13 00:45 348 6 gusting 12 21.1
2020-Jul-13 00:35 324 6 gusting 12 21.1
2020-Jul-13 00:25 324 8 gusting 13 21.1
2020-Jul-13 00:15 317 9 gusting 13 21.1
2020-Jul-13 00:05 330 6 gusting 12 21.7
2020-Jul-12 23:55 319 9 gusting 12 21.7
2020-Jul-12 23:44 321 6 gusting 12 21.7
2020-Jul-12 23:34 321 6 gusting 13 21.7
2020-Jul-12 23:24 005 8 gusting 13 21.7
2020-Jul-12 23:14 326 6 gusting 12 21.7
2020-Jul-12 23:04 330 6 gusting 11 22.2
2020-Jul-12 22:54 028 3 gusting 11 22.2
2020-Jul-12 22:43 325 4 gusting 8 22.2
2020-Jul-12 22:33 344 2 gusting 11 22.2
2020-Jul-12 22:23 343 5 gusting 14 22.8
2020-Jul-12 22:13 327 6 gusting 12 22.8
2020-Jul-12 22:03 333 6 gusting 12 22.8
2020-Jul-12 21:53 341 6 gusting 13 22.8
2020-Jul-12 21:42 323 5 gusting 13 22.8
2020-Jul-12 21:32 005 5 gusting 12 23.3
2020-Jul-12 21:22 335 6 gusting 13 23.3
2020-Jul-12 21:12 357 5 gusting 11 23.3
2020-Jul-12 21:02 314 5 gusting 12 23.9
2020-Jul-12 20:52 327 5 gusting 11 23.9
2020-Jul-12 20:41 338 7 gusting 8 23.9
2020-Jul-12 20:31 026 4 gusting 11 24.4
2020-Jul-12 20:21 023 4 gusting 11 24.4
2020-Jul-12 20:11 322 6 gusting 11 24.4
2020-Jul-12 20:01 327 9 gusting 11 25.0
2020-Jul-12 19:51 018 6 gusting 11 25.6
2020-Jul-12 19:40 348 6 gusting 13 25.6
2020-Jul-12 19:30 354 6 gusting 11 26.1
2020-Jul-12 19:20 003 5 gusting 14 26.7
2020-Jul-12 19:10 323 7 gusting 13 26.7
2020-Jul-12 19:00 017 8 gusting 14 26.7
2020-Jul-12 18:50 008 9 gusting 13 27.2
2020-Jul-12 18:40 335 7 gusting 15 27.8
2020-Jul-12 18:29 324 6 gusting 13 27.8
2020-Jul-12 18:19 001 6 gusting 17 28.3
2020-Jul-12 18:09 347 8 gusting 17 28.3
2020-Jul-12 17:59 008 8 gusting 14 28.9
2020-Jul-12 17:49 020 8 gusting 13 28.9
2020-Jul-12 17:39 005 9 gusting 14 28.9
2020-Jul-12 17:28 342 8 gusting 13 29.4
2020-Jul-12 17:18 053 9 gusting 13 29.4
2020-Jul-12 17:08 355 7 gusting 13 30.0
2020-Jul-12 16:58 006 6 gusting 13 30.0
2020-Jul-12 16:48 342 8 gusting 17 30.6
2020-Jul-12 16:38 358 9 gusting 14 30.6
2020-Jul-12 16:27 010 11 gusting 17 31.1
2020-Jul-12 16:17 032 4 gusting 5 31.1
2020-Jul-12 16:07 039 30.0
2020-Jul-12 15:57 211 5 gusting 9 30.6
2020-Jul-12 15:47 157 1 gusting 7 30.6
2020-Jul-12 15:36 235 2 gusting 9 30.6
2020-Jul-12 15:26 180 4 gusting 7 30.6
2020-Jul-12 15:16 183 1 gusting 12 29.4
2020-Jul-12 15:06 198 6 gusting 15 29.4
2020-Jul-12 14:56 132 6 gusting 12 29.4
2020-Jul-12 14:46 069 2 gusting 9 32.8
2020-Jul-12 14:35 350 7 gusting 9 32.2
2020-Jul-12 14:25 336 3 gusting 12 32.8
2020-Jul-12 14:15 337 9 gusting 11 32.8
2020-Jul-12 14:05 031 7 gusting 13 32.8
2020-Jul-12 13:55 285 4 gusting 11 32.2
2020-Jul-12 13:45 317 8 gusting 9 32.2
2020-Jul-12 13:34 324 5 gusting 12 31.7
2020-Jul-12 13:24 324 10 gusting 13 32.2
2020-Jul-12 13:14 337 5 gusting 11 32.2
2020-Jul-12 13:04 010 1 gusting 6 32.8
2020-Jul-12 12:54 299 2 gusting 6 32.8
2020-Jul-12 12:44 013 6 gusting 9 32.2
2020-Jul-12 12:34 345 2 gusting 9 32.2
2020-Jul-12 12:23 054 1 gusting 4 32.2
2020-Jul-12 12:13 337 4 gusting 6 31.7
2020-Jul-12 12:03 297 4 gusting 6 32.8
2020-Jul-12 11:53 351 1 gusting 4 32.8
2020-Jul-12 11:43 181 0 gusting 5 32.2
2020-Jul-12 11:33 125 4 gusting 5 32.2
2020-Jul-12 11:23 116 1 gusting 6 32.2
2020-Jul-12 11:12 073 1 gusting 6 32.2
2020-Jul-12 11:02 106 2 gusting 6 32.2
2020-Jul-12 10:52 028 1 gusting 5 31.1
2020-Jul-12 10:42 061 2 gusting 6 31.1
2020-Jul-12 10:32 115 2 gusting 4 31.1
2020-Jul-12 10:22 081 2 gusting 5 30.6
2020-Jul-12 10:11 098 5 gusting 6 30.6
2020-Jul-12 10:01 088 1 gusting 6 30.6
2020-Jul-12 09:51 020 0 gusting 6 30.0
2020-Jul-12 09:41 076 2 gusting 5 30.6
2020-Jul-12 09:31 348 0 gusting 8 29.4
2020-Jul-12 09:21 060 1 gusting 6 28.9
2020-Jul-12 09:11 018 1 gusting 6 28.3
2020-Jul-12 09:00 044 3 gusting 8 28.3
2020-Jul-12 08:50 036 1 gusting 9 27.8
2020-Jul-12 08:40 003 6 gusting 6 27.8
2020-Jul-12 08:30 329 2 gusting 11 27.2
2020-Jul-12 08:20 002 4 gusting 9 27.2
2020-Jul-12 08:09 022 5 gusting 11 27.2
2020-Jul-12 07:59 057 1 gusting 11 26.7
2020-Jul-12 07:49 326 6 gusting 11 26.7
2020-Jul-12 07:39 352 2 gusting 8 26.1
2020-Jul-12 07:29 331 3 gusting 8 26.1
2020-Jul-12 07:19 25.6
2020-Jul-12 07:09 039 7 gusting 9 25.6